Regional Weather Roundup
Issued by NWS Jackson, KY

Home | Current Version | Previous Version | Text Only | Print | Product List | Glossary Off
Versions: 1 2 3 4 5 6 7 8 9 10 11 12 13 14 15 16 17 18 19 20 21 22 23 24 25 26 27 28 29 30 31 32 33 34 35 36 37 38 39 40 41 42 43 44 45 46 47 48 49 50

000
ASUS43 KJKL 012310
RWRJKL

EAST KENTUCKY HOURLY WEATHER ROUNDUP
NATIONAL WEATHER SERVICE JACKSON KY
700 PM EDT TUE SEP 01 2015

NOTE: "FAIR" INDICATES FEW OR NO CLOUDS BELOW 12,000 FEET WITH
NO SIGNIFICANT WEATHER AND/OR OBSTRUCTIONS TO VISIBILITY.

* THESE REPORTS ARE NOT UNDER NWS QUALITY CONTROL AND MAY NOT
  REPORT WEATHER SUCH AS PRECIPITATION AND FOG.

KYZ079-080-083-085-087-088-110-112-115-119-120-020000
...EASTERN KENTUCKY...

CITY           SKY/WX    TMP DP  RH WIND       PRES   REMARKS
JACKSON        MOSUNNY   83  65  54 CALM      30.13S
LONDON         MOSUNNY   83  65  54 CALM      30.12S
SOMERSET*      MOSUNNY   82  63  51 CALM      30.12S
MONTICELLO*    PTSUNNY   84  73  69 CALM      30.13F HX  90
WILLIAMSBURG*  MOSUNNY   81  68  65 CALM      30.12S
MIDDLESBORO*   MOSUNNY   81  71  72 W3        30.12S
HAZARD APT*    CLEAR     82  66  57 CALM      30.13R
BLACK MTN*       N/A     70  64  83 N3          N/A
PIKEVILLE APT* SUNNY     81  68  65 CALM      30.13S
BIG SANDY*     PTCLDY    83  67  58 CALM      30.12R
MOREHEAD APT*  PTCLDY    84  66  54 CALM      30.13S
$$

KYZ035-036-041-042-044-050-067-078-099-020000
...CENTRAL KENTUCKY...

CITY           SKY/WX    TMP DP  RH WIND       PRES   REMARKS
MT STERLING*   MOSUNNY   81  72  74 CALM      30.13R
FLEMING/MASON* SUNNY     84  66  54 CALM      30.11S
DANVILLE*      PTSUNNY   82  64  54 CALM      30.12S
RICHMOND*      PTSUNNY   84  63  48 NW3       30.11R
LEXINGTON      MOSUNNY   86  64  47 NW3       30.11S
FRANKFORT      MOSUNNY   86  63  45 W3        30.09S
$$

KYZ091>093-OHZ055-061-077-WVZ005-015-034-035-042-020000
...SOUTHERN OHIO/WEST VIRGINIA...

CITY           SKY/WX    TMP DP  RH WIND       PRES   REMARKS
COVINGTON      MOSUNNY   85  65  51 W5        30.09S
COLUMBUS       PTSUNNY   84  68  58 S9        30.07R
DAYTON         PTSUNNY   79  67  66 N6        30.11S
WILMINGTON     MOSUNNY   82  65  56 SW7       30.09S
HUNTINGTON     PTSUNNY   86  63  45 CALM      30.09R
CHARLESTON     MOSUNNY   84  67  56 CALM      30.09R
PINEVILLE*     MOSUNNY   76  71  86 MISG      30.19R
BECKLEY        MOCLDY    78  64  61 CALM      30.19R
BLUEFIELD      CLOUDY    80  60  50 CALM      30.21S
$$

VAZ002-007-008-TNZ017-027-036-066-071-020000
...SOUTHWEST VIRGINIA/EAST TENNESSEE...

CITY           SKY/WX    TMP DP  RH WIND       PRES   REMARKS
WISE*            N/A    N/A N/A N/A N3        30.21F
JONESVILLE*    MOCLDY    82  68  61 CALM      30.14S
ABINGDON*      MOSUNNY   83  62  49 CALM      30.16S
BRISTOL        PTSUNNY   83  66  56 N6        30.12R
KNOXVILLE      PTSUNNY   87  62  43 N5        30.09S
OAK RIDGE      MOSUNNY   87  65  47 CALM      30.10F
CROSSVILLE     PTSUNNY   80  69  69 CALM      30.15F
NASHVILLE      PTSUNNY   88  63  43 E3        30.08S
$$

...KEY TO REMARKS...
VSB - VISIBILITY IN MILES
WCI - WIND CHILL INDEX
HX  - HEAT INDEX

$$



USA.gov is the U.S. government's official web portal to all federal, state and local government web resources and services.